Time,TemperatureF,DewpointF,PressureIn,WindDirection,WindDirectionDegrees,WindSpeedMPH,WindSpeedGustMPH,Humidity,HourlyPrecipIn,Conditions,Clouds,dailyrainin,SoftwareType,DateUTC
2013-12-03 00:01:00,33.6,32.0,29.86,South,186,5.0,-999.0,92,-99.99,,,0.00,weatherlink.com 1.10,2013-12-03 05:01:00,
2013-12-03 00:16:00,33.3,31.0,29.86,SSW,208,11.0,-999.0,92,-99.99,,,0.00,weatherlink.com 1.10,2013-12-03 05:16:00,
2013-12-03 00:31:00,33.2,31.0,29.86,SW,221,4.0,-999.0,93,-99.99,,,0.00,weatherlink.com 1.10,2013-12-03 05:31:00,
2013-12-03 00:46:00,33.3,32.0,29.86,SW,218,4.0,-999.0,93,-99.99,,,0.00,weatherlink.com 1.10,2013-12-03 05:46:00,
2013-12-03 01:01:00,33.3,32.0,29.86,SW,215,7.0,-999.0,94,-99.99,,,0.00,weatherlink.com 1.10,2013-12-03 06:01:00,
2013-12-03 01:16:00,33.1,32.0,29.86,WSW,244,5.0,-999.0,94,-99.99,,,0.00,weatherlink.com 1.10,2013-12-03 06:16:00,
2013-12-03 01:31:00,33.3,32.0,29.86,SW,215,7.0,-999.0,94,-99.99,,,0.00,weatherlink.com 1.10,2013-12-03 06:31:00,
2013-12-03 01:46:00,33.7,32.0,29.86,SSW,196,7.0,-999.0,94,-99.99,,,0.00,weatherlink.com 1.10,2013-12-03 06:46:00,
2013-12-03 02:01:00,33.8,32.0,29.86,SSW,209,9.0,-999.0,94,-99.99,,,0.00,weatherlink.com 1.10,2013-12-03 07:01:00,
2013-12-03 02:16:00,33.8,32.0,29.86,SW,234,8.0,-999.0,94,-99.99,,,0.00,weatherlink.com 1.10,2013-12-03 07:16:00,
2013-12-03 02:31:00,33.9,32.0,29.86,SW,215,7.0,-999.0,94,-99.99,,,0.00,weatherlink.com 1.10,2013-12-03 07:31:00,
2013-12-03 02:46:00,33.7,32.0,29.86,SSW,213,6.0,-999.0,94,-99.99,,,0.00,weatherlink.com 1.10,2013-12-03 07:46:00,
2013-12-03 03:01:00,33.6,32.0,29.86,SW,226,7.0,-999.0,94,-99.99,,,0.00,weatherlink.com 1.10,2013-12-03 08:01:00,
2013-12-03 03:16:00,33.9,32.0,29.85,WSW,238,7.0,-999.0,94,-99.99,,,0.00,weatherlink.com 1.10,2013-12-03 08:16:00,
2013-12-03 03:31:00,34.3,33.0,29.85,SW,217,7.0,-999.0,94,-99.99,,,0.00,weatherlink.com 1.10,2013-12-03 08:31:00,
2013-12-03 03:46:00,34.6,33.0,29.85,SW,227,2.0,-999.0,94,-99.99,,,0.00,weatherlink.com 1.10,2013-12-03 08:46:00,
2013-12-03 04:01:00,34.6,33.0,29.84,SW,227,5.0,-999.0,94,-99.99,,,0.00,weatherlink.com 1.10,2013-12-03 09:01:00,
2013-12-03 04:16:00,34.6,33.0,29.84,SW,236,5.0,-999.0,94,-99.99,,,0.00,weatherlink.com 1.10,2013-12-03 09:16:00,
2013-12-03 04:31:00,34.5,33.0,29.84,WSW,240,6.0,-999.0,94,-99.99,,,0.00,weatherlink.com 1.10,2013-12-03 09:31:00,
2013-12-03 04:46:00,34.4,33.0,29.85,SW,227,5.0,-999.0,94,-99.99,,,0.00,weatherlink.com 1.10,2013-12-03 09:46:00,
2013-12-03 05:01:00,34.1,33.0,29.86,WSW,246,6.0,-999.0,94,-99.99,,,0.00,weatherlink.com 1.10,2013-12-03 10:01:00,
2013-12-03 05:16:00,34.3,33.0,29.86,SW,234,6.0,-999.0,93,-99.99,,,0.00,weatherlink.com 1.10,2013-12-03 10:16:00,
2013-12-03 05:31:00,34.6,32.0,29.86,SW,236,5.0,-999.0,90,-99.99,,,0.00,weatherlink.com 1.10,2013-12-03 10:31:00,
2013-12-03 05:46:00,34.9,32.0,29.87,SW,230,5.0,-999.0,88,-99.99,,,0.00,weatherlink.com 1.10,2013-12-03 10:46:00,
2013-12-03 06:01:00,35.1,32.0,29.88,SW,223,6.0,-999.0,87,-99.99,,,0.00,weatherlink.com 1.10,2013-12-03 11:01:00,
2013-12-03 06:16:00,35.3,31.0,29.88,SW,234,5.0,-999.0,85,-99.99,,,0.00,weatherlink.com 1.10,2013-12-03 11:16:00,
2013-12-03 06:31:00,35.3,31.0,29.89,WSW,254,2.0,-999.0,85,-99.99,,,0.00,weatherlink.com 1.10,2013-12-03 11:31:00,
2013-12-03 06:46:00,35.3,31.0,29.89,WSW,240,5.0,-999.0,85,-99.99,,,0.00,weatherlink.com 1.10,2013-12-03 11:46:00,
2013-12-03 07:01:00,35.1,31.0,29.89,SW,234,6.0,-999.0,84,-99.99,,,0.00,weatherlink.com 1.10,2013-12-03 12:01:00,
2013-12-03 07:16:00,35.1,31.0,29.89,SW,233,4.0,-999.0,84,-99.99,,,0.00,weatherlink.com 1.10,2013-12-03 12:16:00,
2013-12-03 07:31:00,35.1,30.0,29.88,WSW,250,4.0,-999.0,83,-99.99,,,0.00,weatherlink.com 1.10,2013-12-03 12:31:00,
2013-12-03 07:46:00,34.8,30.0,29.88,WSW,249,4.0,-999.0,84,-99.99,,,0.00,weatherlink.com 1.10,2013-12-03 12:46:00,
2013-12-03 08:01:00,34.7,30.0,29.89,SW,235,5.0,-999.0,84,-99.99,,,0.00,weatherlink.com 1.10,2013-12-03 13:01:00,
2013-12-03 08:16:00,35.2,31.0,29.89,SW,234,5.0,-999.0,83,-99.99,,,0.00,weatherlink.com 1.10,2013-12-03 13:16:00,
2013-12-03 08:31:00,35.1,30.0,29.90,West,262,0.0,-999.0,83,-99.99,,,0.00,weatherlink.com 1.10,2013-12-03 13:31:00,
2013-12-03 08:46:00,35.9,31.0,29.91,SW,225,5.0,-999.0,81,-99.99,,,0.00,weatherlink.com 1.10,2013-12-03 13:46:00,
2013-12-03 09:01:00,35.7,30.0,29.91,SW,219,2.0,-999.0,81,-99.99,,,0.00,weatherlink.com 1.10,2013-12-03 14:01:00,
2013-12-03 09:16:00,36.0,31.0,29.92,SW,226,1.0,-999.0,81,-99.99,,,0.00,weatherlink.com 1.10,2013-12-03 14:16:00,
2013-12-03 09:31:00,36.3,31.0,29.92,SW,226,0.0,-999.0,81,-99.99,,,0.00,weatherlink.com 1.10,2013-12-03 14:31:00,
2013-12-03 09:46:00,36.6,31.0,29.92,SW,225,3.0,-999.0,80,-99.99,,,0.00,weatherlink.com 1.10,2013-12-03 14:46:00,
2013-12-03 10:01:00,37.0,31.0,29.93,SW,217,5.0,-999.0,80,-99.99,,,0.00,weatherlink.com 1.10,2013-12-03 15:01:00,
2013-12-03 10:16:00,37.7,33.0,29.93,SSW,196,8.0,-999.0,82,-99.99,,,0.00,weatherlink.com 1.10,2013-12-03 15:16:00,
2013-12-03 10:31:00,38.3,37.0,29.93,SW,226,2.0,-999.0,93,-99.99,,,0.00,weatherlink.com 1.10,2013-12-03 15:31:00,
2013-12-03 10:46:00,39.4,38.0,29.93,SW,222,4.0,-999.0,93,-99.99,,,0.00,weatherlink.com 1.10,2013-12-03 15:46:00,
2013-12-03 11:01:00,39.7,37.0,29.94,SW,216,3.0,-999.0,91,-99.99,,,0.00,weatherlink.com 1.10,2013-12-03 16:01:00,
2013-12-03 11:17:00,39.9,37.0,29.93,SSW,200,3.0,-999.0,90,-99.99,,,0.00,weatherlink.com 1.10,2013-12-03 16:17:00,
2013-12-03 11:32:00,40.4,38.0,29.93,South,182,4.0,-999.0,89,-99.99,,,0.00,weatherlink.com 1.10,2013-12-03 16:32:00,
2013-12-03 11:47:00,40.2,37.0,29.92,South,173,2.0,-999.0,88,-99.99,,,0.00,weatherlink.com 1.10,2013-12-03 16:47:00,
2013-12-03 12:02:00,39.9,37.0,29.92,SSE,165,0.0,-999.0,88,-99.99,,,0.00,weatherlink.com 1.10,2013-12-03 17:02:00,
2013-12-03 12:17:00,40.4,37.0,29.91,SSW,197,6.0,-999.0,86,-99.99,,,0.00,weatherlink.com 1.10,2013-12-03 17:17:00,
2013-12-03 12:32:00,39.8,36.0,29.90,South,180,0.0,-999.0,87,-99.99,,,0.00,weatherlink.com 1.10,2013-12-03 17:32:00,
2013-12-03 12:47:00,40.8,37.0,29.90,SSW,192,4.0,-999.0,86,-99.99,,,0.00,weatherlink.com 1.10,2013-12-03 17:47:00,
2013-12-03 13:02:00,41.5,36.0,29.89,SSW,213,1.0,-999.0,81,-99.99,,,0.00,weatherlink.com 1.10,2013-12-03 18:02:00,
2013-12-03 13:17:00,41.5,37.0,29.89,WSW,254,5.0,-999.0,84,-99.99,,,0.00,weatherlink.com 1.10,2013-12-03 18:17:00,
2013-12-03 13:32:00,41.8,37.0,29.91,WSW,238,5.0,-999.0,82,-99.99,,,0.00,weatherlink.com 1.10,2013-12-03 18:32:00,
2013-12-03 13:47:00,40.5,36.0,29.91,West,267,4.0,-999.0,84,-99.99,,,0.00,weatherlink.com 1.10,2013-12-03 18:47:00,
2013-12-03 14:02:00,40.6,36.0,29.92,WSW,248,5.0,-999.0,83,-99.99,,,0.00,weatherlink.com 1.10,2013-12-03 19:02:00,
2013-12-03 14:17:00,40.2,36.0,29.93,SW,234,6.0,-999.0,84,-99.99,,,0.00,weatherlink.com 1.10,2013-12-03 19:17:00,
2013-12-03 14:32:00,40.7,37.0,29.92,SW,235,4.0,-999.0,85,-99.99,,,0.00,weatherlink.com 1.10,2013-12-03 19:32:00,
2013-12-03 14:47:00,41.1,36.0,29.92,SW,228,5.0,-999.0,82,-99.99,,,0.00,weatherlink.com 1.10,2013-12-03 19:47:00,
2013-12-03 15:02:00,41.8,36.0,29.91,SW,226,0.0,-999.0,81,-99.99,,,0.00,weatherlink.com 1.10,2013-12-03 20:02:00,
2013-12-03 15:17:00,42.9,36.0,29.93,WSW,252,2.0,-999.0,78,-99.99,,,0.00,weatherlink.com 1.10,2013-12-03 20:17:00,
2013-12-03 15:32:00,41.8,36.0,29.93,WSW,243,6.0,-999.0,80,-99.99,,,0.00,weatherlink.com 1.10,2013-12-03 20:32:00,
2013-12-03 15:47:00,40.9,36.0,29.93,SW,221,2.0,-999.0,83,-99.99,,,0.00,weatherlink.com 1.10,2013-12-03 20:47:00,
2013-12-03 16:02:00,40.5,36.0,29.93,SW,234,2.0,-999.0,84,-99.99,,,0.00,weatherlink.com 1.10,2013-12-03 21:02:00,
2013-12-03 16:17:00,40.3,36.0,29.93,SW,229,0.0,-999.0,85,-99.99,,,0.00,weatherlink.com 1.10,2013-12-03 21:17:00,
2013-12-03 16:32:00,39.7,36.0,29.93,SW,229,0.0,-999.0,87,-99.99,,,0.00,weatherlink.com 1.10,2013-12-03 21:32:00,
2013-12-03 16:47:00,38.4,36.0,29.92,SSE,168,4.0,-999.0,90,-99.99,,,0.00,weatherlink.com 1.10,2013-12-03 21:47:00,
2013-12-03 17:02:00,38.0,35.0,29.92,SSE,168,3.0,-999.0,90,-99.99,,,0.00,weatherlink.com 1.10,2013-12-03 22:02:00,
2013-12-03 17:17:00,37.7,35.0,29.91,SE,143,0.0,-999.0,91,-99.99,,,0.00,weatherlink.com 1.10,2013-12-03 22:17:00,
2013-12-03 17:32:00,37.5,35.0,29.92,South,188,4.0,-999.0,90,-99.99,,,0.00,weatherlink.com 1.10,2013-12-03 22:32:00,
2013-12-03 17:47:00,37.8,35.0,29.92,SSE,162,3.0,-999.0,90,-99.99,,,0.00,weatherlink.com 1.10,2013-12-03 22:47:00,
2013-12-03 18:02:00,38.1,35.0,29.93,South,183,2.0,-999.0,88,-99.99,,,0.00,weatherlink.com 1.10,2013-12-03 23:02:00,
2013-12-03 18:17:00,38.6,35.0,29.93,South,173,3.0,-999.0,86,-99.99,,,0.00,weatherlink.com 1.10,2013-12-03 23:17:00,
2013-12-03 18:32:00,38.4,36.0,29.93,South,171,3.0,-999.0,89,-99.99,,,0.00,weatherlink.com 1.10,2013-12-03 23:32:00,
2013-12-03 18:47:00,38.2,35.0,29.94,South,185,9.0,-999.0,88,-99.99,,,0.00,weatherlink.com 1.10,2013-12-03 23:47:00,
2013-12-03 19:02:00,38.9,35.0,29.94,South,180,4.0,-999.0,87,-99.99,,,0.00,weatherlink.com 1.10,2013-12-04 00:02:00,
2013-12-03 19:17:00,38.9,36.0,29.94,South,180,7.0,-999.0,88,-99.99,,,0.00,weatherlink.com 1.10,2013-12-04 00:17:00,
2013-12-03 19:32:00,39.5,36.0,29.94,South,169,5.0,-999.0,87,-99.99,,,0.00,weatherlink.com 1.10,2013-12-04 00:32:00,
2013-12-03 19:47:00,38.4,36.0,29.94,SSW,209,7.0,-999.0,90,-99.99,,,0.00,weatherlink.com 1.10,2013-12-04 00:47:00,
2013-12-03 20:02:00,38.3,36.0,29.94,South,184,2.0,-999.0,92,-99.99,,,0.00,weatherlink.com 1.10,2013-12-04 01:02:00,
2013-12-03 20:17:00,38.5,36.0,29.93,South,170,0.0,-999.0,92,-99.99,,,0.00,weatherlink.com 1.10,2013-12-04 01:17:00,
2013-12-03 20:32:00,38.1,36.0,29.93,ENE,72,1.0,-999.0,92,-99.99,,,0.00,weatherlink.com 1.10,2013-12-04 01:32:00,
2013-12-03 20:47:00,37.4,36.0,29.93,South,188,4.0,-999.0,93,-99.99,,,0.00,weatherlink.com 1.10,2013-12-04 01:47:00,
2013-12-03 21:02:00,37.8,36.0,29.93,SSE,160,2.0,-999.0,93,-99.99,,,0.00,weatherlink.com 1.10,2013-12-04 02:02:00,
2013-12-03 21:17:00,37.4,36.0,29.93,SSE,156,8.0,-999.0,93,-99.99,,,0.00,weatherlink.com 1.10,2013-12-04 02:17:00,
2013-12-03 21:32:00,37.0,36.0,29.94,SSE,155,7.0,-999.0,94,-99.99,,,0.00,weatherlink.com 1.10,2013-12-04 02:32:00,
2013-12-03 21:47:00,37.9,36.0,29.94,SSE,167,2.0,-999.0,93,-99.99,,,0.00,weatherlink.com 1.10,2013-12-04 02:47:00,
2013-12-03 22:02:00,38.2,36.0,29.94,South,187,4.0,-999.0,93,-99.99,,,0.00,weatherlink.com 1.10,2013-12-04 03:02:00,
2013-12-03 22:17:00,38.7,37.0,29.94,SW,229,9.0,-999.0,92,-99.99,,,0.00,weatherlink.com 1.10,2013-12-04 03:17:00,
2013-12-03 22:32:00,39.1,37.0,29.95,SW,218,7.0,-999.0,91,-99.99,,,0.00,weatherlink.com 1.10,2013-12-04 03:32:00,
2013-12-03 22:47:00,38.7,37.0,29.96,SSE,159,10.0,-999.0,93,-99.99,,,0.00,weatherlink.com 1.10,2013-12-04 03:47:00,
2013-12-03 23:02:00,38.7,37.0,29.96,South,172,7.0,-999.0,94,-99.99,,,0.00,weatherlink.com 1.10,2013-12-04 04:02:00,
2013-12-03 23:17:00,38.4,37.0,29.96,South,190,9.0,-999.0,95,-99.99,,,0.00,weatherlink.com 1.10,2013-12-04 04:17:00,
2013-12-03 23:32:00,38.3,37.0,29.96,East,101,1.0,-999.0,94,-99.99,,,0.00,weatherlink.com 1.10,2013-12-04 04:32:00,
2013-12-03 23:47:00,37.9,36.0,29.96,South,182,1.0,-999.0,93,-99.99,,,0.00,weatherlink.com 1.10,2013-12-04 04:47:00,